sat.trackr.live / text

‹ back to catalog

STARLINK-5195

NORAD 54051 · 2022-136A

PAYLOAD ACTIVE UNKNOWN

§ Identity

Operator
Country
US
Launch date
2022-10-20
Launch site
AFETR
Launch vehicle
Mass (kg)
RCS (m²)

Purposes: comms

External: N2YO · Heavens-Above · Gunter

§ Orbital elements

Epoch: 2026-05-25T00:26:18.014784Z

Period
95.43 min
Inclination
53.2186°
Eccentricity
0.0001382
Mean motion
15.09038370 rev/d
Perigee alt
538.2 km
Apogee alt
540.1 km
Semi-major
6,917.3 km
B*
6.4652e-5
RAAN
1.7065°
Arg perigee
95.4577°
Mean anomaly
264.6573°
Rev number
19,836

§ Raw data

STARLINK-51951 54051U 22136A   26145.01826406  .00000746  00000+0  64652-4 0  99972 54051  53.2186   1.7065 0001382  95.4577 264.6573 15.09038370198368

JSON: /api/v1/satellites/54051 · /tle

For live sub-satellite position, see the globe view (requires WebGL).

§ Visibility from observer

Set your observer location to see the next 7 days of passes ≥ 10°. The values pass through the URL so the page stays shareable.

No JS? Fill the form by hand. The geolocation button needs JavaScript.